Location: Newark
(41.6500°N, 71.4833°W)
Time: 11:59:23
(UTC+00:00)

Vanguard 3 - All Passes

Search period start: 22 January 2020 00:00
Search period end: 01 February 2020 00:00
Orbit: 507 x 3263 km, 33.4° (Epoch: 22 January)

Date Brightness Start Highest point End Pass type
(mag) Time Alt. Az. Time Alt. Az. Time Alt. Az.
22 Jan - 01:01:17 10° WSW 01:19:11 61° S 01:30:13 10° ESE visible
22 Jan - 03:18:46 10° W 03:32:42 48° SSW 03:40:49 10° SE visible
22 Jan - 05:37:17 10° W 05:43:40 18° SW 05:48:20 10° S night (unlit)
22 Jan - 19:23:53 10° SSE 19:33:53 17° SE 19:43:49 10° ESE daylight
22 Jan - 21:30:33 10° SSW 21:47:57 40° SSE 22:02:45 10° E daylight
22 Jan - 23:44:14 10° WSW 00:03:12 59° S 00:16:14 10° E visible
23 Jan - 02:01:06 10° W 02:17:50 58° S 02:27:46 10° ESE visible
23 Jan - 04:19:01 10° W 04:30:13 33° SW 04:37:12 10° SSE visible
23 Jan - 20:16:47 10° SSW 20:31:56 30° SE 20:46:26 10° E daylight
23 Jan - 22:27:58 10° SW 22:46:51 53° SSE 23:01:39 10° E visible
24 Jan - 00:43:36 10° WSW 01:02:14 63° S 01:14:11 10° ESE visible
24 Jan - 03:01:11 10° W 03:16:01 47° SSW 03:24:50 10° SE visible
24 Jan - 05:20:22 10° W 05:27:01 17° SW 05:31:59 10° S visible
24 Jan - 19:05:03 10° S 19:16:24 19° SE 19:28:05 10° E daylight
24 Jan - 21:12:47 10° SW 21:30:28 44° SSE 21:46:20 10° E daylight
24 Jan - 23:26:35 10° WSW 23:46:00 62° S 00:00:01 10° E visible
25 Jan - 01:43:27 10° W 02:00:58 58° SSW 02:11:44 10° ESE visible
25 Jan - 04:01:37 10° W 04:13:30 32° SW 04:21:04 10° SSE visible
25 Jan - 19:58:54 10° SSW 20:14:22 33° SE 20:29:57 10° E daylight
25 Jan - 22:10:23 10° SW 22:29:27 56° SSE 22:45:15 10° E visible
26 Jan - 00:25:59 10° WSW 00:45:09 64° S 00:58:01 10° ESE visible
26 Jan - 02:43:35 10° W 02:59:11 46° SSW 03:08:45 10° SE visible
26 Jan - 05:03:26 10° W 05:10:15 17° SW 05:15:27 10° SSW visible
26 Jan - 18:46:49 10° S 18:58:51 22° SE 19:11:51 10° E daylight
26 Jan - 20:55:15 10° SW 21:12:54 47° SSE 21:29:45 10° E daylight
26 Jan - 23:09:04 10° WSW 23:28:43 64° S 23:43:42 10° E visible
27 Jan - 01:25:49 10° W 01:43:59 58° SSW 01:55:37 10° ESE visible
27 Jan - 03:44:12 10° W 03:56:38 30° SW 04:04:50 10° SSE visible
27 Jan - 17:39:16 10° SE 17:43:59 11° SE 17:48:57 10° ESE daylight
27 Jan - 19:41:21 10° SSW 19:56:46 36° SE 20:13:15 10° E daylight
27 Jan - 21:53:00 10° WSW 22:11:58 59° SSE 22:28:43 10° E visible
28 Jan - 00:08:27 10° W 00:27:58 64° S 00:41:47 10° ESE visible
28 Jan - 02:25:59 10° W 02:42:13 45° SSW 02:52:34 10° SE visible
28 Jan - 04:46:34 10° W 04:53:22 16° SW 04:58:44 10° SSW visible
28 Jan - 18:29:01 10° S 18:41:17 25° SE 18:55:16 10° E daylight
28 Jan - 20:37:57 10° SW 20:55:19 50° SSE 21:13:00 10° E daylight
28 Jan - 22:51:42 10° WSW 23:11:21 65° S 23:27:16 10° E visible
29 Jan - 01:08:15 10° W 01:26:52 57° SSW 01:39:22 10° SE visible
29 Jan - 03:26:47 10° W 03:39:39 29° SW 03:48:26 10° SSE visible
29 Jan - 17:19:51 10° SSE 17:26:33 14° SE 17:33:56 10° ESE daylight
29 Jan - 19:24:03 10° SSW 19:39:10 39° SE 19:56:22 10° E daylight
29 Jan - 21:35:47 10° WSW 21:54:27 61° SSE 22:12:03 10° E daylight
29 Jan - 23:51:02 10° W 00:10:41 64° S 00:25:25 10° ESE visible
30 Jan - 02:08:26 10° W 02:25:06 43° SSW 02:36:15 10° SE visible
30 Jan - 04:29:48 10° W 04:36:23 14° SW 04:41:43 10° SSW visible
30 Jan - 18:11:33 10° S 18:23:44 27° SE 18:38:25 10° E daylight
30 Jan - 20:20:51 10° SW 20:37:44 53° SSE 20:56:07 10° E daylight
30 Jan - 22:34:28 10° WSW 22:53:54 66° S 23:10:42 10° ESE visible
31 Jan - 00:50:46 10° W 01:09:38 55° SSW 01:23:01 10° SE visible
31 Jan - 03:09:24 10° W 03:22:32 28° SW 03:31:53 10° S visible
31 Jan - 17:01:33 10° SSE 17:09:07 15° SE 17:17:54 10° E daylight
31 Jan - 19:06:58 10° SSW 19:21:35 42° SSE 19:39:18 10° E daylight
31 Jan - 21:18:44 10° WSW 21:36:55 63° SSE 21:55:16 10° E daylight
